This demonstration page uses our WeatherBlox Daily Observations layout. Learn more.

Left ArrowRight Arrow

39.01783, -85.05884

Hourly Observations for August 18, 2021

Temp ( °F °C ) Dew Point ( °F °C ) Humidity (%) Winds ( mph kmh ) Pressure ( in mb ) Visibility ( mi km ) Precip ( " mm )
12:52 am 00:52 Cloudy 74 23.3 69 20.6 85 85 E 8 13 29.97 1015 10 16 0.00 0.00
1:52 am 01:52 Mostly Cloudy 73 22.8 69 20.6 87 87 NNW 5 7 29.98 1015 10 16 0.00 0.00
2:52 am 02:52 Mostly Cloudy 72 22.2 69 20.6 91 91 N 6 9 29.97 1015 7 11 0.00 0.00
3:02 am 03:02 Mostly Cloudy 72 22.2 69 20.6 91 91 NNW 5 7 29.98 1015 7 11 0.00 0.00
3:52 am 03:52 Mostly Cloudy 71 21.7 68 20 90 90 NW 3 6 29.98 1015 7 11 0.00 0.00
4:52 am 04:52 Partly Cloudy 70 21.1 68 20 93 93 WNW 5 7 30.00 1016 8 13 0.00 0.00
5:13 am 05:13 Partly Cloudy with Patchy Fog 70 21.1 68 20 93 93 NW 3 6 30.01 1016 3 5 0.00 0.00
5:34 am 05:34 Mostly Cloudy with Mist and Fog 70 21.1 68 20 93 93 NW 3 6 30.01 1016 2 3 0.00 0.00
5:37 am 05:37 Cloudy with Mist and Fog 70 21.1 68 20 93 93 Calm 30.01 1016 2 2 0.00 0.00
5:42 am 05:42 Mostly Cloudy with Mist and Fog 70 21.1 68 20 93 93 Calm 30.01 1016 1 1 0.00 0.00
5:49 am 05:49 Mostly Cloudy with Fog 70 21 68 20 94 94 Calm 30.02 1017 0 0 0.00 0.00
5:52 am 05:52 Mostly Cloudy with Fog 70 21.1 68 20 93 93 Calm 30.02 1017 0 0 0.00 0.00
6:07 am 06:07 Mostly Cloudy with Fog 70 21.1 68 20 93 93 Calm 30.02 1017 1 1 0.00 0.00
6:27 am 06:27 Mostly Cloudy with Mist and Fog 70 21.1 67 19.4 90 90 Calm 30.02 1017 1 1 0.00 0.00
6:40 am 06:40 Mostly Cloudy with Mist and Fog 70 21.1 67 19.4 90 90 Calm 30.02 1017 1 1 0.00 0.00
6:52 am 06:52 Mostly Cloudy with Mist and Fog 69 20.6 66 18.9 90 90 W 3 6 30.03 1017 1 2 0.00 0.00
7:15 am 07:15 Mostly Cloudy with Fog 69 20.6 67 19.4 93 93 W 5 7 30.05 1017 1 2 0.00 0.00
7:22 am 07:22 Mostly Cloudy with Mist and Fog 69 20.6 67 19.4 93 93 W 5 7 30.05 1017 1 2 0.00 0.00
7:52 am 07:52 Mostly Cloudy with Fog 69 20.6 67 19.4 93 93 Calm 30.05 1018 1 2 0.00 0.00
8:33 am 08:33 Mostly Cloudy with Mist and Fog 71 21.7 69 20.6 94 94 W 5 7 30.06 1018 1 2 0.00 0.00
8:49 am 08:49 Mostly Cloudy with Mist and Fog 72 22 68 20 88 88 W 3 6 30.07 1018 1 2 0.00 0.00
8:52 am 08:52 Mostly Cloudy with Mist and Fog 71 21.7 69 20.6 94 94 Calm 30.07 1018 5 8 0.00 0.00
8:57 am 08:57 Mostly Sunny 72 22.2 70 21.1 94 94 Calm 30.07 1018 7 11 0.00 0.00
9:52 am 09:52 Mostly Sunny 77 25 69 20.6 77 77 WNW 6 9 30.07 1018 10 16 0.00 0.00
10:04 am 10:04 Mostly Cloudy 78 25.6 70 21.1 76 76 W 8 13 30.07 1018 10 16 0.00 0.00
10:31 am 10:31 Mostly Cloudy 78 25.6 70 21.1 76 76 WNW 6 9 30.07 1018 10 16 0.00 0.00
10:52 am 10:52 Mostly Cloudy 80 26.7 70 21.1 71 71 W 6 9 30.08 1019 10 16 0.00 0.00
11:52 am 11:52 Mostly Cloudy 82 27.8 69 20.6 65 65 VRB 5 7 30.09 1019 10 16 0.00 0.00
12:52 pm 12:52 Mostly Cloudy 85 29.4 69 20.6 59 59 W 7 11 30.08 1019 10 16 0.00 0.00
1:52 pm 13:52 Mostly Cloudy 86 30 68 20 55 55 W 7 11 30.08 1019 10 16 0.00 0.00
2:52 pm 14:52 Mostly Cloudy 86 30 67 19.4 53 53 W 10 17 30.07 1018 10 16 0.00 0.00
3:52 pm 15:52 Mostly Cloudy 87 30.6 67 19.4 51 51 SW 7 11 30.06 1018 10 16 0.00 0.00
4:52 pm 16:52 Mostly Cloudy 88 31.1 67 19.4 50 50 WSW 9 15 30.05 1018 10 16 0.00 0.00
5:52 pm 17:52 Cloudy 87 30.6 67 19.4 51 51 WNW 6 9 30.05 1018 10 16 0.00 0.00
6:52 pm 18:52 Cloudy 85 29.4 68 20 57 57 W 6 9 30.05 1018 10 16 0.00 0.00
7:52 pm 19:52 Cloudy 82 27.8 68 20 63 63 W 5 7 30.06 1018 10 16 0.00 0.00
8:52 pm 20:52 Cloudy 78 25.6 70 21.1 76 76 SSW 5 7 30.07 1018 10 16 0.00 0.00
9:52 pm 21:52 Cloudy 80 26.7 69 20.6 69 69 SW 5 7 30.08 1019 10 16 0.00 0.00
10:52 pm 22:52 Cloudy 79 26.1 70 21.1 74 74 SW 8 13 30.10 1019 10 16 0.00 0.00
11:52 pm 23:52 Cloudy with Light Rain 77 25 70 21.1 79 79 WSW 6 9 30.10 1019 10 16 0.00 0.00

Powered by AerisWeather